Simultaneous Nadir Overpasses (SNOs) Predictions

Prediction of SNOs between GOES-16 and NOAA-19 Satellite Orbit:

Table of predicted SNOs for the next 14.0 days since TLE Epoch: 2/5/2022
Index Date Time (GOES-16) GOES-16 Lat,Lon NOAA-19 Lat,Lon Distance(km) Time Diff (sec)
1 02/06/2022 00:36:40 0.02, -75.18 -0.32, -76.63 165.17 80
2 02/07/2022 00:22:13 0.02, -75.18 0.35, -73.75 163.38 80
3 02/08/2022 00:10:25 0.02, -75.18 1.01, -70.87 492.02 80
4 02/09/2022 12:45:33 -0.01, -75.21 0.78, -78.64 392.04 80
5 02/10/2022 12:33:45 -0.01, -75.21 0.10, -75.77 63.06 80
6 02/11/2022 12:19:17 -0.02, -75.22 -0.53, -72.88 266.08 80
7 02/14/2022 00:42:45 0.00, -75.21 -0.57, -77.81 295.92 80
8 02/15/2022 00:28:16 -0.00, -75.22 0.04, -74.92 33.75 80
9 02/16/2022 00:16:29 -0.01, -75.23 0.71, -72.04 363.38 80
10 02/18/2022 12:39:46 0.02, -75.28 0.38, -76.93 188.04 80
